Regional Weather Roundup
Issued by NWS Upton, NY

Current Version | Previous Version | Text Only | Print | Product List | Glossary On
Versions: 1 2 3 4 5 6 7 8 9 10 11 12 13 14 15 16 17 18 19 20 21 22 23 24 25 26 27 28 29
000
ASUS41 KOKX 300905
RWROKX

REGIONAL WEATHER ROUNDUP
NATIONAL WEATHER SERVICE NEW YORK NY
500 AM EDT THU OCT 30 2014

NOTE: "FAIR" INDICATES FEW OR NO CLOUDS BELOW 12,000 FEET WITH NO
SIGNIFICANT WEATHER AND/OR OBSTRUCTIONS TO VISIBILITY.

NYZ071-072-176-178-NJZ106-104-301000-
NEW YORK CITY METRO AREA


CITY           SKY/WX    TMP DP  RH WIND       PRES   REMARKS
CENTRAL PARK   CLEAR     50  44  80 VRB5      29.97R
LAGUARDIA APRT PTCLDY    52  46  80 NW8       29.94S
KENNEDY INTL   CLEAR     50  46  86 W3        29.95S
NEWARK/LIBERTY PTCLDY    46  44  93 W7        29.95S
BRNX BOT. GARD   N/A     46  45  93 N2        29.94R
TETERBORO      CLEAR     45  43  93 CALM      29.94S
$$

NYZ177-179-078>081-301000-
LONG ISLAND NEW YORK

CITY           SKY/WX    TMP DP  RH WIND       PRES   REMARKS
FARMINGDALE    CLEAR     47  44  90 CALM      29.94S
ISLIP          CLEAR     46  44  93 CALM      29.92S
SHIRLEY        CLEAR     43  42  97 CALM      29.94S
WESTHAMPTON    PTCLDY    37  35  92 CALM      29.95R
MONTAUK POINT    N/A     55  40  56 NW8       29.94R
$$

NYZ052-065-067-301000-
HUDSON VALLEY

CITY           SKY/WX    TMP DP  RH WIND       PRES   REMARKS
WHITE PLAINS   CLEAR     42  41  96 NW6       29.93S
NEWBURGH       PTCLDY    45  45 100 W6        29.95S
MONTGOMERY     LGT RAIN  40  39  97 SW3       29.94R
POUGHKEEPSIE   CLOUDY    41  39  93 CALM      29.93S
ALBANY         CLOUDY    48  40  73 W7        29.93R
$$

NJZ001-105-106-008-010-013-015-019>022-104-301000-
NEW JERSEY

CITY           SKY/WX    TMP DP  RH WIND       PRES   REMARKS
NEWARK/LIBERTY PTCLDY    46  44  93 W7        29.95S
TETERBORO      CLEAR     45  43  93 CALM      29.94S
CALDWELL       FOG       40  38  93 CALM      29.96R VSB 1/4
MORRISTOWN     FOG       39  37  93 CALM      29.95S VSB<1/4
SOMERVILLE     FOG       45  44  97 CALM      29.95S VSB 1/4
SUSSEX         FOG       42  40  92 CALM      29.96R VSB 1/4
ANDOVER          N/A     40  40 100 CALM      29.96R
TRENTON        FOG       44  43  96 W5        29.96R VSB 1/4
MILLVILLE      FOG       45  45 100 W3        29.98R VSB 1/4
ATLANTIC CITY  LGT RAIN  45  44  97 NW6       29.97R VSB 1/2
WRIGHTSTOWN    FOG       46  46 100 NW3       29.95R VSB 3/4
TOMS RIVER     CLOUDY    46  45  93 CALM      29.96S VSB 1/4
BELMAR         CLOUDY    43  37  81 W6        29.95S VSB<1/4
$$

PAZ047>061-062-071-301000-
EASTERN PENNSYLVANIA

CITY           SKY/WX    TMP DP  RH WIND       PRES   REMARKS
PHILADELPHIA   CLEAR     47  43  86 SW5       29.98R
ALLENTOWN      FOG       44  42  93 SW5       29.96S VSB 1/4
SCRANTON       MOCLDY    43  39  86 CALM      29.96S
$$

CTZ002-004>006-009-010-012-RIZ004-006-007-MAZ004-011-015-301000-
SOUTHERN NEW ENGLAND
 IN CT

CITY           SKY/WX    TMP DP  RH WIND       PRES   REMARKS
BRADLEY INTL   PTCLDY    40  37  89 CALM      29.92S
HARTFORD       MOCLDY    40  39  97 CALM      29.93S FOG
DANBURY        FOG       40  38  93 CALM      29.95R VSB 1/4
WTRBRY/OXFORD  CLEAR     39  34  81 N3        29.95R
BRIDGEPORT     CLEAR     44  43  96 NW6       29.94R
MERIDEN        CLEAR     36  34  92 CALM      29.94R
NEW HAVEN      CLEAR     41  37  86 N3        29.94R FOG
CHESTER        FAIR      43  37  81 CALM      29.93S
GROTON         PTCLDY    41  38  89 N3        29.93R
WILLIMANTIC    FOG       40  39  97 CALM      29.93R VSB 1/4

 IN RI

CITY           SKY/WX    TMP DP  RH WIND       PRES   REMARKS
PROVIDENCE     PTCLDY    46  40  79 W5        29.91S
BLOCK ISLAND   MOCLDY    52  37  58 NW8       29.92R
WESTERLY       PTCLDY    46  39  76 CALM      29.93R

 IN MA

CITY           SKY/WX    TMP DP  RH WIND       PRES   REMARKS
BOSTON         PTCLDY    48  39  71 W8        29.89R
WORCESTER      CLEAR     42  35  76 W12       29.90R
WESTFIELD      FOG       34  32  92 CALM      29.92S VSB 1/2
PROVINCETOWN   PTCLDY    52  -2  11 NW10G17   29.88S
NANTUCKET      MOCLDY    54  41  61 NW13      29.89R
$$

ANZ330-335-338-340-345-350-353-355-301000-
COASTAL MARINE OBSERVATIONS


STATION/POSITION TIME  SKY/WX   TEMP    WIND        PRES    VSBY  WAVE
                                AIR SEA DIR/SP/G                  HT/PER
                 (UTC)          (F)     (DEG/KT/KT) (MB)    (MI)  (FT/S)
NY HARB ENTRANCE 0900            55 61  300/  8/ 12 1014.2          2/ 6
4S FIRE IS       0900               62                N/A           2/ 6
20S FIRE ISLAND  0900            57 62  340/  6/  8 1013.6          2/ 6
23SW MTP         0900                                 N/A           3/ 6
HUDSON CANYON    0900            58 64  360/ 14/ 17 1012.7          4/ 5
EXECUTION ROCKS  0900            53 60  290/  6/  8   N/A
WESTERN LI SOUND 0900            53     290/  6/  8   N/A           0
CENTRAL LI SOUND 0900            54 62  320/  8/ 10   N/A           1/ 3
EASTERN LI SOUND 0800            52 62  340/  8/  8   N/A
ROBBINS REEF     0900            49     280/  6/  8 1012.8
$$


>>>>>>>>>>>>>>>>>>>>>>>>>>>> KEY <<<<<<<<<<<<<<<<<<<<<<<<<<<
>                                                          <
>     SKY/WX - SKY CONDITION/PRESENT WEATHER               <
>     TMP    - TEMPERATURE IN FAHRENHEIT                   <
>     DP     - DEWPOINT IN FAHRENHEIT                      <
>     RH     - RELATIVE HUMIDITY IN PERCENT                <
>     WIND   - DIRECTION AND SPEED IN MPH                  <
>     PRES   - MEAN SEA LEVEL PRESSURE IN INCHES OF HG     <
>     WCI    - WIND CHILL INDEX                            <
>     VSB    - VISIBILITY IN MILES                         <
>     HX     - HEAT INDEX                                  <
>     TC     - TEMPERATURE IN CELSIUS                      <
>     VRB    - VARIABLE WIND DIRECTION                     <
>                                                          <
>>>>>>>>>>>>>>>>>>>>>>>>>>>> KEY <<<<<<<<<<<<<<<<<<<<<<<<<<<





USA.gov is the U.S. government's official web portal to all federal, state and local government web resources and services.